F5- Agency Registration Information
Vendor Registration Portal

Sl. No. Request No Request Date Registration No Registration Reason Vendor Code Vendor Name Approval Flags Approval Date Rejected Reason
1 REQ/2023/276 2023-08-13 REG/2023/242 0000000223 JYOTIRMOY MAHATA Accepted 2023-09-27
2 REQ/2023/324 2023-08-14 REG/2023/248 0000000246 SAMARPITA ENGINEERING Accepted 2023-09-27
3 REQ/2023/164 2023-08-11 REG/2023/115 Request For Vendor Code 0000000083 MANISHIKA CONSTRUCTION Accepted 2023-08-23
4 REQ/2023/291 2023-08-14 REG/2023/263 Registration 0000000244 RS Electromechanical Corporation Accepted 2023-09-27
5 REQ/2023/335 2023-08-14 REG/2023/282 0000000217 GOSWAMI TRANSPORT AND ENGINEERING WORKS Accepted 2023-09-27
6 REQ/2023/482 2023-08-14 REG/2023/344 i am working with this Division 0000000199 AMITAVA CHAKRABORTY Accepted 2023-09-27
7 REQ/2023/1011 2023-08-16 REG/2023/568 Request for vendor registration 0000000231 M/S S. K. ENTERPRISE Accepted 2023-09-27
8 REQ/2023/505 2023-08-14 REG/2023/363 0000000221 JOY GURU TRADING Accepted 2023-09-27
9 REQ/2023/961 2023-08-16 REG/2023/546 0000000136 Carbon Services India Accepted 2023-08-31
10 REQ/2023/1566 2023-08-16 REG/2023/759 0000000206 BALAJI CONSTRUCTION Accepted 2023-09-27
11 REQ/2023/1638 2023-08-16 REG/2023/782 Request for pending approval 0000000243 ROY ASSOCIATES Accepted 2023-09-27
12 REQ/2023/1777 2023-08-17 REG/2023/858 Work order issued 0000000191 I R CONSTRUCTION Accepted 2023-09-11
13 REQ/2023/1751 2023-08-16 REG/2023/848 0000000180 M/s SAMRIDDHI ENTERPRISES Accepted 2023-08-24
14 REQ/2023/1393 2023-08-16 REG/2023/341 Want to start work with this Division 0000000215 THE BUSINESS ENGINEERS INDIA Accepted 2023-09-27
15 REQ/2023/1417 2023-08-16 REG/2023/701 Request for pending approval 0000000241 REAL TIME Accepted 2023-09-27
16 REQ/2023/1470 2023-08-16 REG/2023/712 Request for Pending Approval 0000000195 Ganguly Enterprise Accepted 2023-09-08
17 REQ/2023/2461 2023-08-17 REG/2023/1157 Request for approval 0000000228 M/S COSMOPOLITON TRADERS Accepted 2023-09-27
18 REQ/2023/2122 2023-08-17 REG/2023/1011 0000000240 Radharani Enterprise Accepted 2023-09-27
19 REQ/2023/2174 2023-08-17 REG/2023/1046 Request for pending approval 0000000194 MONDAL ENTERPRISE Accepted 2023-09-11
20 REQ/2023/1934 2023-08-17 REG/2023/906 0000000234 MAHADEV ENTERPRISE Accepted 2023-09-27
21 REQ/2023/2738 2023-08-18 REG/2023/167 Working Purpose 0000000247 SAMIRON GHOSH Accepted 2023-09-27
22 REQ/2023/2820 2023-08-18 REG/2023/1181 0000000224 Koley Enterprise Accepted 2023-09-27
23 REQ/2023/2873 2023-08-18 REG/2023/1181 submission of bill and other services Koley Enterprise Rejected 2023-12-05 This is Duplicate Request, Approved Request Code Ref. : REQ/2023/2820
24 REQ/2023/3074 2023-08-18 REG/2023/1393 Request for vendor code 0000000219 HR Solar Solution Pvt. Ltd. Accepted 2023-09-27
25 REQ/2023/3084 2023-08-18 REG/2023/98 Request for pending approval 0000000205 B M ENTERPRISE Accepted 2023-09-27
26 REQ/2023/3303 2023-08-18 REG/2023/1464 0000000220 JOGMAYA ENGINEERING Accepted 2023-09-27
27 REQ/2023/3240 2023-08-18 REG/2023/41 Request for Pending approval 0000000258 Satyabrata Chakarborty Accepted 2023-10-04
28 REQ/2023/3415 2023-08-18 REG/2023/637 Working under Jhargram Division 0000000106 ODISSI INNOVATIONS ENGINEERS PVT. LTD. Accepted 2023-09-26
29 REQ/2023/3678 2023-08-18 REG/2023/1609 Request for Pending Approval 0000000181 SUNANDA ENVIROMENTAL INTERNATIONAL PVT. LTD. Accepted 2023-08-29
30 REQ/2023/3175 2023-08-18 REG/2023/1427 Request for Pending Approval 0000000209 BISWAS CONSTRUCTION Accepted 2023-09-27
31 REQ/2023/4324 2023-08-21 REG/2023/391 Request for Vendor Code 0000000053 EFFLUENT AND WATERTREATMENT ENGINEERS PVT. LTD Accepted 2023-08-31
32 REQ/2023/4352 2023-08-21 REG/2023/1924 0000000239 PRAGATI CONSTRUCTION & CO Accepted 2023-09-27
33 REQ/2023/3842 2023-08-18 REG/2023/1699 Working for jhargram Division 0000000037 Pranoy kumar Ukil Accepted 2023-09-27
34 REQ/2023/4939 2023-08-22 REG/2023/1149 0000000211 Concord Engineering Accepted 2023-09-27
35 REQ/2023/4365 2023-08-21 REG/2023/1927 0000000222 JUPITER CONSTRUCTION Accepted 2023-09-27
36 REQ/2023/4570 2023-08-21 REG/2023/2002 REGISTRATION 0000000251 SK ENTERPRISE Accepted 2023-09-27
37 REQ/2023/4822 2023-08-22 REG/2023/2063 0000000252 TAPAS KUMAR GIRI Accepted 2023-09-27
38 REQ/2023/4579 2023-08-21 REG/2023/515 Request for vendor code 0000000117 Hydrotech Associates Accepted 2023-08-31
39 REQ/2023/4652 2023-08-22 REG/2023/1944 REQUEST FOR VENDOR CODE 0000000049 MONDAL PRECISION PRIVATE LIMITED Accepted 2023-08-23
40 REQ/2023/4507 2023-08-21 REG/2023/1982 REGISTRATION 0000000086 Arushi Construction Accepted 2023-08-31
41 REQ/2023/4688 2023-08-22 REG/2023/1915 NEW REGISTATION 0000000189 A K SIKDAR Accepted 2023-09-06
42 REQ/2023/5491 2023-08-23 REG/2023/378 Bill submission 0000000133 FIDERE MARINE SERVICES PVT. LTD. Accepted 2023-08-23
43 REQ/2023/5562 2023-08-23 REG/2023/2159 Please approved 0000000001 Gobinda Maity Accepted 2023-08-23
44 REQ/2023/5375 2023-08-23 REG/2023/1380 Sending for approval. 0000000216 Ghosh Construction Accepted 2023-09-27
45 REQ/2023/5560 2023-08-23 REG/2023/2265 Please Approved 0000000020 SUNIL DULE Accepted 2023-08-23
46 REQ/2023/5618 2023-08-23 REG/2023/2292 0000000127 GAUTAM SENAPATI Accepted 2023-08-23
47 REQ/2023/5570 2023-08-23 REG/2023/2269 Please Approved 0000000022 BISHNU PADA NANDI Accepted 2023-08-23
48 REQ/2023/5346 2023-08-23 REG/2023/2199 Sending for approval. 0000000193 SUDHAMAY MAJUMDAR Accepted 2023-09-11
49 REQ/2023/5381 2023-08-23 REG/2023/1337 Sending for approval. 0000000238 Onkar Enterprise (Prolay Ghosh) Accepted 2023-09-27
50 REQ/2023/5899 2023-08-24 REG/2023/2378 Request code Maa Tara Enterprise Rejected 2023-12-21 Invalid Mobile number, Please remove "+91" from your mobile no.
51 REQ/2023/5925 2023-08-24 REG/2023/1983 Dear sir I am looking for new opportunity in your division please let me chance to do my job... 0000000210 C.N ENTERPRISE Accepted 2023-09-27
52 REQ/2023/5745 2023-08-24 REG/2023/19 0000000003 Dhumketu Engineering Pvt Ltd Accepted 2023-08-24
53 REQ/2023/5785 2023-08-24 REG/2023/2370 0000000041 J.S.S. ENTERPRISE Accepted 2023-08-24
54 REQ/2023/5712 2023-08-23 REG/2023/2341 0000000237 om udyog Accepted 2023-09-27
55 REQ/2023/6125 2023-08-24 REG/2023/297 0000000174 LAKSHMI IRON Accepted 2023-08-31
56 REQ/2023/6161 2023-08-25 REG/2023/2489 0000000076 SUJOY RANJAN BHOWMICK Accepted 2023-08-31
57 REQ/2023/5718 2023-08-23 REG/2023/2342 0000000201 anuska enterprise Accepted 2023-09-27
58 REQ/2023/6158 2023-08-25 REG/2023/2487 0000000058 DEBABRATA DUTTA Accepted 2023-08-25
59 REQ/2023/5794 2023-08-24 REG/2023/2375 0000000018 NRIPENDRA NATH SINGHA Accepted 2023-08-31
60 REQ/2023/5970 2023-08-24 REG/2023/2429 please approved 0000000092 MASUM CONSTRUCTION Accepted 2023-08-24
61 REQ/2023/6217 2023-08-25 REG/2023/2507 0000000043 TAPAS KUMAR JANA Accepted 2023-08-25
62 REQ/2023/5631 2023-08-23 REG/2023/2303 BRAJENDRANATH SENAPATI Rejected 2023-12-21 Worng pan and GSt No.
63 REQ/2023/5863 2023-08-24 REG/2023/311 Sir I am working contractor under your division, kindly approve my request. 0000000104 JYOTY SOLAR POWER Accepted 2023-08-31
64 REQ/2023/6605 2023-08-28 REG/2023/2619 Sir approved please. 0000000245 S.N. POLYMERS PRIVATE LIMITED Accepted 2023-09-27
65 REQ/2023/6311 2023-08-25 REG/2023/2535 0000000197 A R CONSTRUCTION Accepted 2023-09-27
66 REQ/2023/6571 2023-08-28 REG/2023/2616 0000000233 Maan Steel & Power Limited Accepted 2023-09-27
67 REQ/2023/6863 2023-08-29 REG/2023/2705 0000000015 RAMENDRA NATH KAR Accepted 2023-08-29
68 REQ/2023/6887 2023-08-29 REG/2023/2710 0000000072 M/S S.R. & COMPANY Accepted 2023-08-29
69 REQ/2023/6905 2023-08-29 REG/2023/2719 0000000010 S.B.TRADERS Accepted 2023-08-29
70 REQ/2023/6918 2023-08-29 REG/2023/2726 0000000112 MAA LAXMI ENTERPRISE Accepted 2023-08-29
71 REQ/2023/6348 2023-08-25 REG/2023/2551 0000000147 R. CONSTRUCTION Accepted 2023-09-11
72 REQ/2023/6803 2023-08-28 REG/2023/2680 0000000235 Mahaprabhu Enterprise Accepted 2023-09-27
73 REQ/2023/6874 2023-08-29 REG/2023/2707 0000000038 SAURABH KAR Accepted 2023-08-29
74 REQ/2023/6893 2023-08-29 REG/2023/2715 0000000009 BIDYUT KUMAR SANTRA Accepted 2023-08-29
75 REQ/2023/7455 2023-08-31 REG/2023/344 WANT TO WORK AMITAVA CHAKRABORTY Rejected 2023-12-05 This is Duplicate Request, Approved Request Code Ref. : REQ/2023/482
76 REQ/2023/7580 2023-08-31 REG/2023/2900 0000000035 MAHAVIR SAMPARK PVT. LTD. Accepted 2023-08-31
77 REQ/2023/7591 2023-08-31 REG/2023/2899 Request for Vendor Code. 0000000021 Dipak Kumar Bakly Accepted 2023-09-11
78 REQ/2023/7028 2023-08-29 REG/2023/2756 0000000198 ALOM POLY EXTRUSIONS LTD Accepted 2023-09-27
79 REQ/2023/7534 2023-08-31 REG/2023/2888 0000000048 NIRMAL DUTTA Accepted 2023-08-31
80 REQ/2023/7566 2023-08-31 REG/2023/2892 0000000044 PROVAT KUMAR DE Accepted 2023-08-31
81 REQ/2023/7579 2023-08-31 REG/2023/2898 Request for vendor code 0000000002 M/S Bakly Construction Accepted 2023-09-11
82 REQ/2023/7610 2023-08-31 REG/2023/2151 0000000063 M/S PROCHESTA ENTERPRISE Accepted 2023-08-31
83 REQ/2023/7614 2023-08-31 REG/2023/2147 0000000184 SK ALIM Accepted 2023-08-31
84 REQ/2023/6982 2023-08-29 REG/2023/2167 0000000054 M/S SANKAR KUMAR NAG Accepted 2023-08-29
85 REQ/2023/6933 2023-08-29 REG/2023/2726 0000000011 MAA LAXMI ENTERPRISE Accepted 2023-08-31
86 REQ/2023/6968 2023-08-29 REG/2023/2164 0000000031 SANKAR KUMAR NAG Accepted 2023-08-29
87 REQ/2023/7367 2023-08-31 REG/2023/2851 0000000087 KARTIK DUTTA Accepted 2023-08-31
88 REQ/2023/6932 2023-08-29 REG/2023/2726 MAA LAXMI ENTERPRISE Rejected 2023-09-26 This is Duplicate Request, Approved Request Code Ref. : REQ/2023/6918
89 REQ/2023/7387 2023-08-31 REG/2023/2861 0000000045 M/S. D.K.H.CONSTRUCTION Accepted 2023-08-31
90 REQ/2023/7405 2023-08-31 REG/2023/1593 registration 0000000126 MAHAVIR PUMPS MANUFACTURING PRIVATE LIMITED Accepted 2023-08-31
91 REQ/2023/7449 2023-08-31 REG/2023/1494 working under Jhargram Division 0000000057 SIBSANKAR CHOWDHURY Accepted 2023-09-26
92 REQ/2023/6931 2023-08-29 REG/2023/2726 MAA LAXMI ENTERPRISE Rejected 2023-09-26 This is Duplicate Request, Approved Request Code Ref. : REQ/2023/6918
93 REQ/2023/6938 2023-08-29 REG/2023/2737 0000000008 SAIKAT DANDAPAT Accepted 2023-08-29
94 REQ/2023/6941 2023-08-29 REG/2023/2162 0000000075 SAUBHIK KUMAR NAG Accepted 2023-08-29
95 REQ/2023/7470 2023-08-31 REG/2023/2501 0000000093 ALOK ENTERPRISE (A UNIT OF SAKET TREXIM PVT LTD.) Accepted 2023-09-11
96 REQ/2023/7883 2023-09-04 REG/2023/1602 Request For Vendor Code 0000000111 SANYUKTA ENGINEERING PRIVATE LIMITED Accepted 2023-09-26
97 REQ/2023/7964 2023-09-05 REG/2023/3020 ALOK ENTERPRISE (A UNIT OF SAKET TREXIM PVT. LTD.) Rejected 2023-09-26 This is Duplicate Request, Approved Request Code Ref. : REQ/2023/7470
98 REQ/2023/8036 2023-09-06 REG/2023/3034 0000000187 PRINT PREVIEW Accepted 2023-09-06
99 REQ/2023/7809 2023-09-04 REG/2023/2202 0000000185 SATYANARAYAN BISWAS Accepted 2023-09-04
100 REQ/2023/8015 2023-09-05 REG/2023/2997 0000000177 GOUTAM RAY Accepted 2023-09-26
101 REQ/2023/8035 2023-09-06 REG/2023/3033 0000000188 Gopal Jana Accepted 2023-09-06
102 REQ/2023/8151 2023-09-08 REG/2023/3075 request for vendor code 0000000139 M/S A.R. Enterprise Accepted 2023-09-26
103 REQ/2023/8173 2023-09-09 REG/2023/3036 Request for vendor code A R Enterprise Rejected 2023-09-26 This is Duplicate Request, Approved Request Code Ref. : REQ/2023/8038
104 REQ/2023/7696 2023-09-01 REG/2023/2947 Sir please approved 0000000186 MANOJ KUMAR MAHATA Accepted 2023-09-06
105 REQ/2023/7891 2023-09-05 REG/2023/18 For bill upload 0000000040 Envotech Infra Solution Accepted 2023-09-06
106 REQ/2023/7907 2023-09-05 REG/2023/3010 Request for vendor code 0000000080 Bhowmik Construction Accepted 2023-09-11
107 REQ/2023/8056 2023-09-07 REG/2023/3047 0000000190 KANAN CONSTRUCTION ENTERPRISE Accepted 2023-09-07
108 REQ/2023/8038 2023-09-07 REG/2023/3036 Kindly approve. 0000000064 A R Enterprise Accepted 2023-09-26
109 REQ/2023/7628 2023-08-31 REG/2023/2916 0000000006 ASIS KUMAR SARANGI Accepted 2023-08-31
110 REQ/2023/7630 2023-08-31 REG/2023/2917 0000000005 ASSOCIATED ENGINEERS & TRADERS Accepted 2023-08-31
111 REQ/2023/8078 2023-09-07 REG/2023/3004 0000000158 SWACH ENVIRONMENT PRIVATE LIMITED Accepted 2023-09-07
112 REQ/2023/8140 2023-09-08 REG/2023/2345 0000000036 Samir Patra Accepted 2023-09-27
113 REQ/2023/8339 2023-09-12 REG/2023/3105 0000000236 MALLICK ENTERPRISE Accepted 2023-09-27
114 REQ/2023/8373 2023-09-12 REG/2023/3117 request for vendor code 0000000202 A-Plus Accepted 2023-09-27
115 REQ/2023/8554 2023-09-14 REG/2023/2146 vendor approval 0000000226 M.DHARA & BROTHERS Accepted 2023-09-27
116 REQ/2023/8809 2023-09-17 REG/2023/1494 JJM WORKS SIBSANKAR CHOWDHURY Rejected 2023-09-26 Duplicate entry
117 REQ/2023/8381 2023-09-13 REG/2023/3122 request for vendor code 0000000229 M/S GEO Accepted 2023-09-27
118 REQ/2023/8384 2023-09-13 REG/2023/3123 request for vendor code 0000000039 DULAL CHANDRA DAS Accepted 2023-09-26
119 REQ/2023/8428 2023-09-13 REG/2023/3133 0000000249 SHAKEEL KHAN Accepted 2023-09-27
120 REQ/2023/8460 2023-09-13 REG/2023/3059 Request vender code 0000000026 nimai lal guria Accepted 2023-09-26
121 REQ/2023/8473 2023-09-14 REG/2023/3152 0000000207 BANI ENGINEERING CO. Accepted 2023-09-27
122 REQ/2023/8624 2023-09-15 REG/2023/3194 0000000059 AJITESH ACHARJEE Accepted 2023-09-26
123 REQ/2023/8685 2023-09-15 REG/2023/2894 Approval and Billing purpose 0000000213 DEBNATH BROTHERS Accepted 2023-09-27
124 REQ/2023/8376 2023-09-12 REG/2023/3118 Request for vendor code 0000000204 ARNAB PATRA Accepted 2023-09-27
125 REQ/2023/8517 2023-09-14 REG/2023/3168 SARADA CONSTRUCTION Rejected 2023-12-21 Invalid Pan no.
126 REQ/2023/8389 2023-09-13 REG/2023/3125 request for vendor code 0000000137 MAMPI ENTERPRISE Accepted 2023-09-26
127 REQ/2023/8404 2023-09-13 REG/2023/3132 Request for vendor code 0000000014 ASHIM KUMAR DEY Accepted 2023-09-26
128 REQ/2023/8461 2023-09-13 REG/2023/3058 Request for vendor code 0000000167 sandip guria Accepted 2023-09-26
129 REQ/2023/8759 2023-09-16 REG/2023/2942 For Approval and Billing purpose 0000000250 Shoummyodip & co Accepted 2023-09-27
130 REQ/2023/8456 2023-09-13 REG/2023/3143 REQUEST FOR VENDOR CODE 0000000212 DEBJIT PATRA Accepted 2023-09-27
131 REQ/2023/9076 2023-09-21 REG/2023/1503 Please Approve Vendor Registration 0000000012 TECH VISION Accepted 2023-09-26
132 REQ/2023/9178 2023-09-21 REG/2023/3309 0000000027 M/S Oxford Security service Accepted 2023-09-26
133 REQ/2023/9143 2023-09-21 REG/2023/3313 0000000203 AQUEDUCT PLASTICS PVT LTD Accepted 2023-09-27
134 REQ/2023/9313 2023-09-22 REG/2023/750 For Bill Submission. 0000000227 M/s B K Enterprise Accepted 2023-09-27
135 REQ/2023/9320 2023-09-22 REG/2023/3051 For Bill Submission. 0000000170 DIVINE Accepted 2023-09-26
136 REQ/2023/9223 2023-09-21 REG/2023/3318 0000000200 ANJAN INFRASTRUCTURE PVT. LTD. Accepted 2023-09-27
137 REQ/2023/9224 2023-09-21 REG/2023/3318 ANJAN INFRASTRUCTURE PVT. LTD. Rejected 2023-12-05 This is Duplicate Request, Approved Request Code Ref. :REQ/2023/9223
138 REQ/2023/9057 2023-09-21 REG/2023/1519 Please approved Vendor Registration 0000000218 HORIZEN Accepted 2023-09-27
139 REQ/2023/9374 2023-09-22 REG/2023/3350 0000000230 M/S S & P CONSTRUCTION Accepted 2023-09-27
140 REQ/2023/9222 2023-09-21 REG/2023/3318 ANJAN INFRASTRUCTURE PVT. LTD. Rejected 2023-12-05 This is Duplicate Request, Approved Request Code Ref. : REQ/2023/9223
141 REQ/2023/9001 2023-09-20 REG/2023/3287 0000000225 KUNAL BANERJEE Accepted 2023-09-27
142 REQ/2023/9860 2023-09-27 REG/2023/3491 Vender 0000000085 MILAN DATTA Accepted 2023-12-21
143 REQ/2023/9876 2023-09-28 REG/2023/3497 0000000253 SUBHAM CONSTRUCTION Accepted 2023-09-28
144 REQ/2023/9878 2023-09-28 REG/2023/3333 0000000103 SUNIL KUMAR MANDAL Accepted 2023-09-28
145 REQ/2023/9678 2023-09-26 REG/2023/956 Request for Vendor Code 0000000259 KAMAKHYA ENTERPRISE Accepted 2023-10-04
146 REQ/2023/9800 2023-09-27 REG/2023/3469 0000000067 Tarun Mahata Accepted 2023-12-21
147 REQ/2023/9964 2023-09-28 REG/2023/3507 0000000123 KOUSIK PATRA Accepted 2023-09-28
148 REQ/2023/9503 2023-09-25 REG/2023/194 0000000208 BHARATI CHEMICAL & SCIENTIFIC WORKS Accepted 2023-09-27
149 REQ/2023/9599 2023-09-26 REG/2023/3400 0000000016 LALIT BIHARI MAITY Accepted 2023-09-26
150 REQ/2023/9785 2023-09-27 REG/2023/1339 0000000165 Subhankar Banerjee Accepted 2023-09-27
151 REQ/2023/10015 2023-09-28 REG/2023/3521 0000000050 MANDAL ENTERPRISE Accepted 2023-09-28
152 REQ/2023/9664 2023-09-26 REG/2023/3433 Request for vendor code 0000000154 NEER UDYOG Accepted 2023-10-04
153 REQ/2023/10067 2023-09-29 REG/2023/3491 MILAN DATTA Rejected 2023-12-21 This is Duplicate Request, Approved Request Code Ref. : REQ/2023/9860
154 REQ/2023/9451 2023-09-25 REG/2023/2816 0000000077 M/s. R. Dutta & Co. Accepted 2023-09-26
155 REQ/2023/9790 2023-09-27 REG/2023/2581 0000000073 Ashis Shee Accepted 2023-09-27
156 REQ/2023/9661 2023-09-26 REG/2023/3431 Request for Vendor code 0000000116 Subrata Das Accepted 2023-09-29
157 REQ/2023/1143 2023-08-16 REG/2023/522 0000000242 RITESH ENTERPRISE Accepted 2023-09-27
158 REQ/2023/9893 2023-09-28 REG/2023/3328 0000000100 Tapan Kumar Mandal Accepted 2023-10-04
159 REQ/2023/9936 2023-09-28 REG/2023/3504 0000000260 JAI BHARAT COMMERCIAL CORPORATION Accepted 2023-10-04
160 REQ/2023/9994 2023-09-28 REG/2023/1943 0000000143 JDJ ENTERPRISE (A UNIT OF JDJ TRADERS PVT LTD) Accepted 2023-10-04
161 REQ/2023/9834 2023-09-27 REG/2023/3483 0000000034 HRITWIK DUTTA Accepted 2023-12-21
162 REQ/2023/9872 2023-09-28 REG/2023/3496 Request for vendor code 0000000261 PALASH KUMAR DAS Accepted 2023-10-04
163 REQ/2023/10013 2023-09-28 REG/2023/3304 0000000051 SUJATA CONSTRUCTION Accepted 2023-10-04
164 REQ/2023/9439 2023-09-23 REG/2023/171 Working purpose 0000000029 GHOSH ENTERPRISE (SOUMEN GHOSH) Accepted 2023-12-21
165 REQ/2023/9535 2023-09-25 REG/2023/3380 0000000214 DIPAK KUMAR DOLAI Accepted 2023-09-27
166 REQ/2023/9804 2023-09-27 REG/2023/3471 0000000141 SHRI RANISATI VENTURES Accepted 2023-09-27
167 REQ/2024/251 2024-02-07 REG/2024/152 Please Accepted 0000000294 MA GAYETRI NIRMAN PRIVATE LIMITED Accepted 2024-02-07
168 REQ/2024/899 2024-04-09 REG/2024/492 Bill requisition 0000000307 JAY BABA LOKNATH ENTERPRISE Accepted 2024-04-09
169 REQ/2023/10788 2023-10-31 REG/2023/3808 plz 0000000172 M/s. EL-CON Accepted 2023-12-05
170 REQ/2024/381 2024-03-19 REG/2024/223 Request for vendor code 0000000304 SANGJOG Accepted 2024-03-19
171 REQ/2024/966 2024-04-09 REG/2024/515 PLEASE 0000000308 SANJIB SARKAR Accepted 2024-04-09
172 REQ/2023/10295 2023-09-30 REG/2023/3631 0000000262 PRITAM SENGUPTA Accepted 2023-10-04
173 REQ/2023/10801 2023-10-31 REG/2023/3813 plz 0000000078 CANVAS Accepted 2023-12-05
174 REQ/2023/10151 2023-09-29 REG/2023/3585 0000000145 RELIABLE SANITARY AND PLUMBING CO. Accepted 2023-10-04
175 REQ/2023/10837 2023-11-04 REG/2023/3053 Please 0000000055 BANERJEE CONSTRUCTION Accepted 2023-12-21
176 REQ/2024/234 2024-02-05 REG/2024/141 Please approved 0000000134 JHARGRAM SPV PRIVATE LIMITED Accepted 2024-02-05
177 REQ/2023/11220 2023-12-30 REG/2023/4022 Supply of Cement 0000000291 Bharat Hitech (Cements) Pvt Ltd Accepted 2024-02-01
178 REQ/2024/272 2024-02-13 REG/2023/1323 request for vendor code 0000000296 SSPR VALVE MANUFACTURING PVT LTD Accepted 2024-03-06
179 REQ/2023/10246 2023-09-30 REG/2023/3619 0000000159 M/S BLUE BIRD Accepted 2023-09-30
180 REQ/2024/38 2024-01-05 REG/2024/23 WE ARE THE MANUFACTURING COMPANY OF HDPE PIPES & HDPE WATER STORAGE TANK FOR WHICH WE WANT TO DO VENDOR REGISTRATION 0000000292 JAMSHEDPUR RESOURCES PVT LTD Accepted 2024-02-01
181 REQ/2023/10175 2023-09-29 REG/2023/3593 0000000074 SRIMANTA KUMAR DE Accepted 2023-09-29
182 REQ/2023/10695 2023-10-12 REG/2023/3065 FOR FURTHER PROCIDINGS 0000000061 CHAKRBORTTI ENTERPRISE Accepted 2023-12-21
183 REQ/2024/848 2024-04-08 REG/2024/463 Please accept request 0000000306 Nargish Enterprise Accepted 2024-04-08
184 REQ/2023/10944 2023-12-01 REG/2023/923 Please approved Bhowmik and sons Rejected 2023-12-21 Please add postal PIN Code in address.
185 REQ/2023/10552 2023-10-06 REG/2023/3719 Vendor Registration 0000000084 SUBHAMAY DANDAPAT Accepted 2023-10-06
186 REQ/2024/156 2024-01-19 REG/2024/91 please APPROVED 0000000288 GANDHI MAHATA Accepted 2024-01-19
187 REQ/2024/157 2024-01-19 REG/2024/92 please Approved 0000000289 DIPAK ENTERPRISE Accepted 2024-01-19
188 REQ/2023/10107 2023-09-29 REG/2023/3570 0000000114 KOUSIK MUKHERJEE Accepted 2023-09-29
189 REQ/2023/10166 2023-09-29 REG/2023/3589 0000000090 SUTANU DE Accepted 2023-09-29
190 REQ/2024/144 2024-01-17 REG/2024/81 work purpose 0000000286 UTSAV AGENCY Accepted 2024-01-17
191 REQ/2023/10468 2023-10-04 REG/2023/3689 VENDOR REGESTRATION 0000000257 SHIBAM ENTERPRIZES Accepted 2023-10-04
192 REQ/2023/10977 2023-12-11 REG/2023/3920 Request For Vendor Code 0000000280 Palash Mandal Accepted 2023-12-11
193 REQ/2024/143 2024-01-17 REG/2024/80 Please approved 0000000285 UMA PRASAD DATTA Accepted 2024-01-17
194 REQ/2024/401 2024-03-24 REG/2023/3193 Request 0000000301 Carto Accepted 2024-04-16
195 REQ/2024/243 2024-02-06 REG/2024/148 Request For Vendor Code 0000000284 Maa Construction Accepted 2024-02-06
196 REQ/2024/383 2024-03-19 REG/2024/225 Plz approve 0000000305 M/S Durga Enterprise Accepted 2024-03-20
197 REQ/2023/11016 2023-12-15 REG/2023/2919 Request for vendor code 0000000068 KISHORE GHOSH Accepted 2023-12-21
198 REQ/2023/10360 2023-10-03 REG/2023/3657 FOR VENDOR REG 0000000256 SURAJIT SAHA Accepted 2023-10-03
199 REQ/2024/380 2024-03-18 REG/2024/224 FOR TENDER 0000000303 swastik enterprise Accepted 2024-03-19
200 REQ/2023/10404 2023-10-03 REG/2023/3666 FOR VENDOR REG 0000000254 PARTHA PROTIM PRADHAN Accepted 2023-10-03
201 REQ/2023/10649 2023-10-10 REG/2023/3757 Vendor registration 0000000089 M/S ANKITA CONSTRUCTION Accepted 2023-10-10
202 REQ/2024/117 2024-01-11 REG/2024/64 RENEWAL 0000000293 NILACHAL IRON & POWER LTD., Accepted 2024-02-01
203 REQ/2024/151 2024-01-18 REG/2023/1879 PLEASE APPROVED 0000000276 MAHARAJA CONSTRUCTION CO. Accepted 2024-01-18
204 REQ/2023/10946 2023-12-01 REG/2023/2278 Please approved 0000000274 Satyabrata Bhaumik Accepted 2023-12-01
205 REQ/2023/11046 2023-12-15 REG/2023/3942 PLZ 0000000140 SAI TUBE CO. Accepted 2023-12-21
206 REQ/2023/10804 2023-10-31 REG/2023/3814 plz 0000000278 M/s. CARE Accepted 2023-12-05
207 REQ/2023/11196 2023-12-26 REG/2023/4013 Plase give me vendor Id for my construction firm 0000000269 Shefali Construction Accepted 2024-01-30
208 REQ/2024/192 2024-01-30 REG/2024/122 Please Approved 0000000290 KALYAN ADHIKARI Accepted 2024-01-30
209 REQ/2024/153 2024-01-18 REG/2023/1539 Please Approved 0000000287 M/S SUPRIYA CHATTERJEE Accepted 2024-01-18
210 REQ/2023/11157 2023-12-21 REG/2023/2515 Please approve 0000000023 S R ENTERPRISE Accepted 2023-12-21
211 REQ/2023/10217 2023-09-29 REG/2023/3228 Working under different schemes 0000000263 APEX ENGINEERING Accepted 2023-10-04
212 REQ/2023/10498 2023-10-05 REG/2023/3697 Vendor Registration 0000000107 RITESH AGARWALL Accepted 2023-10-05
213 REQ/2024/388 2024-03-21 REG/2024/232 please accept my request 0000000295 FIROJ KHAN Accepted 2024-03-21
214 REQ/2023/10479 2023-10-04 REG/2023/3691 ALREADY WORKING AS AN ISA..PLEASE ACCEPT MY REQUEST. 0000000270 KARNAJORA AGNIBINA SEVA SAMITY Accepted 2023-11-06
215 REQ/2023/10515 2023-10-06 REG/2023/3705 For vendor code 0000000282 MERCANTILE HALL Accepted 2023-12-21
216 REQ/2024/576 2024-04-03 REG/2023/3022 Please Accept SIRCON ENGINEERING SERVICES Pending 2024-04-03
217 REQ/2024/1140 2024-04-16 REG/2023/2160 Please accept for requisition 0000000108 Masum Ali Khan Accepted 2024-04-16
218 REQ/2023/10191 2023-09-29 REG/2023/3601 0000000264 RELIABLE ENTERPRISES Accepted 2023-10-04
219 REQ/2023/10271 2023-09-30 REG/2023/3624 0000000255 ADITYA ARAV DEV CONS CO. PVT. LTD. Accepted 2023-09-30